I1SXT-13 Weather Reports


time (UTC)temp
C
wind
direction
speed
KPH
gust
KPH
rain 1hr
cm
rain 24hr
cm
rain mn
cm
humidity
%
barometer
mb
20260507223426 12 0.0 0.0 0.00 0.00 0.00 87 1015.8
20260507222928 12 0.0 0.0 0.00 0.00 0.00 84 1015.0
20260507222424 12 0.0 0.0 0.00 0.00 0.00 82 1014.8
20260507221927 12 0.0 0.0 0.00 0.00 0.00 82 1015.0
20260507221423 12 0.0 0.0 0.00 0.00 0.00 82 1015.0
20260507220926 12 0.0 0.0 0.00 0.00 0.00 82 1015.2
20260507220429 12 0.0 0.0 0.00 0.00 0.00 83 1015.6
20260507215929 12 0.0 0.0 0.00 0.00 0.00 85 1015.1
20260507215425 12 0.0 0.0 0.00 0.00 0.00 85 1015.2
20260507214928 13 0.0 0.0 0.00 0.00 0.00 84 1014.8
20260507214424 13 0.0 0.0 0.00 0.00 0.00 83 1015.1
20260507213927 13 0.0 0.0 0.00 0.00 0.00 82 1014.6
20260507213430 13 0.0 0.0 0.00 0.00 0.00 83 1015.0
20260507212926 13 0.0 0.0 0.00 0.00 0.00 82 1014.6
20260507212428 13 0.0 0.0 0.00 0.00 0.00 83 1015.1
20260507211924 13 0.0 0.0 0.00 0.00 0.00 84 1014.6
20260507211427 13 0.0 0.0 0.00 0.00 0.00 84 1014.4
20260507210923 13 0.0 0.0 0.00 0.00 0.00 85 1014.9
20260507210426 13 0.0 0.0 0.00 0.00 0.00 86 1014.7
20260507205929 13 0.0 0.0 0.00 0.00 0.00 87 1015.3
20260507205425 13 0.0 0.0 0.00 0.00 0.00 86 1015.7
20260507204928 13 0.0 0.0 0.00 0.00 0.00 86 1015.2
20260507204424 13 0.0 0.0 0.00 0.00 0.00 87 1015.2
20260507203927 13 0.0 0.0 0.00 0.00 0.00 88 1015.6
20260507203429 13 0.0 0.0 0.00 0.00 0.00 88 1016.1
20260507202926 13 0.0 0.0 0.00 0.00 0.00 89 1015.1
20260507202429 13 0.0 0.0 0.00 0.00 0.00 88 1015.0
20260507201924 13 0.0 0.0 0.00 0.00 0.00 88 1014.7
20260507201427 13 0.0 0.0 0.00 0.00 0.00 87 1015.3
20260507200923 13 0.0 0.0 0.00 0.00 0.00 87 1014.3
20260507200426 13 0.0 0.0 0.00 0.00 0.00 87 1015.0
20260507195929 14 0.0 0.0 0.00 0.00 0.00 87 1015.0
20260507195425 14 0.0 0.0 0.00 0.00 0.00 87 1014.8
20260507194928 13 0.0 0.0 0.00 0.00 0.00 88 1014.9
20260507194424 13 0.0 0.0 0.00 0.00 0.00 89 1014.5
20260507193927 13 0.0 0.0 0.00 0.00 0.00 89 1014.5
20260507193429 13 0.0 0.0 0.00 0.00 0.00 90 1015.1
20260507192925 13 0.0 0.0 0.00 0.00 0.00 91 1014.3
20260507192428 13 0.0 0.0 0.00 0.00 0.00 91 1014.7
20260507191924 13 0.0 0.0 0.00 0.00 0.00 91 1014.5
20260507191427 13 0.0 0.0 0.00 0.00 0.00 91 1014.4
20260507190923 13 0.0 0.0 0.00 0.00 0.00 91 1015.0
20260507190426 13 0.0 0.0 0.00 0.00 0.00 90 1014.7
20260507185929 14 0.0 0.0 0.00 0.00 0.00 90 1014.4
20260507185425 14 0.0 0.0 0.00 0.00 0.00 90 1015.2
20260507184928 14 0.0 0.0 0.00 0.00 0.00 89 1014.7
20260507184424 14 0.0 0.0 0.00 0.00 0.00 89 1014.6
20260507183926 14 0.0 0.0 0.00 0.00 0.00 88 1013.9
20260507183431 15 0.0 0.0 0.00 0.00 0.00 88 1014.6
20260507182925 15 0.0 0.0 0.00 0.00 0.00 88 1014.5
20260507182428 15 0.0 0.0 0.00 0.00 0.00 88 1014.8
20260507181924 15 0.0 0.0 0.00 0.00 0.00 87 1014.7
20260507181427 15 0.0 0.0 0.00 0.00 0.00 86 1014.2
20260507180930 15 0.0 0.0 0.00 0.00 0.00 86 1014.5
20260507180426 15 0.0 0.0 0.00 0.00 0.00 85 1014.2
20260507175929 15 0.0 0.0 0.00 0.00 0.00 83 1014.8
20260507175424 16 0.0 0.0 0.00 0.00 0.00 81 1014.2
20260507174928 16 0.0 0.0 0.00 0.00 0.00 80 1014.7
20260507174423 16 0.0 0.0 0.00 0.00 0.00 79 1014.6
20260507173926 16 0.0 0.0 0.00 0.00 0.00 77 1014.6
20260507173429 16 0.0 0.0 0.00 0.00 0.00 78 1014.5
20260507172925 17 0.0 0.0 0.00 0.00 0.00 77 1015.0
20260507172428 17 0.0 0.0 0.00 0.00 0.00 73 1014.2
20260507171924 17 0.0 0.0 0.00 0.00 0.00 75 1014.7
20260507171427 17 0.0 0.0 0.00 0.00 0.00 74 1014.6
20260507170930 17 0.0 0.0 0.00 0.00 0.00 75 1014.1
20260507170425 17 0.0 0.0 0.00 0.00 0.00 73 1014.5
20260507165929 17 0.0 0.0 0.00 0.00 0.00 74 1014.2
20260507165424 17 0.0 0.0 0.00 0.00 0.00 73 1014.6
20260507164927 17 0.0 0.0 0.00 0.00 0.00 73 1014.5
20260507164423 18 0.0 0.0 0.00 0.00 0.00 72 1014.3
20260507163926 18 0.0 0.0 0.00 0.00 0.00 71 1014.1
20260507163429 18 0.0 0.0 0.00 0.00 0.00 71 1014.7
20260507162925 18 0.0 0.0 0.00 0.00 0.00 69 1014.9
20260507162428 18 0.0 0.0 0.00 0.00 0.00 69 1014.5
20260507161924 18 0.0 0.0 0.00 0.00 0.00 69 1014.1
20260507160929 18 0.0 0.0 0.00 0.00 0.00 72 1015.2
20260507160425 18 0.0 0.0 0.00 0.00 0.00 68 1014.7
20260507155928 18 0.0 0.0 0.00 0.00 0.00 69 1014.8
20260507155424 19 0.0 0.0 0.00 0.00 0.00 71 1014.5
20260507154927 18 0.0 0.0 0.00 0.00 0.00 71 1014.8
20260507154430 18 0.0 0.0 0.00 0.00 0.00 73 1014.4
20260507153428 20 0.0 0.0 0.00 0.00 0.00 70 1014.5
20260507152925 19 0.0 0.0 0.00 0.00 0.00 70 1014.9
20260507152427 19 0.0 0.0 0.00 0.00 0.00 71 1014.9
20260507151923 19 0.0 0.0 0.00 0.00 0.00 71 1014.5
20260507151426 18 0.0 0.0 0.00 0.00 0.00 71 1014.7
20260507150929 19 0.0 0.0 0.00 0.00 0.00 71 1015.3
20260507145928 19 0.0 0.0 0.00 0.00 0.00 70 1014.6
20260507145424 20 0.0 0.0 0.00 0.00 0.00 69 1014.9
20260507144927 20 0.0 0.0 0.00 0.00 0.00 69 1015.1
20260507144429 20 0.0 0.0 0.00 0.00 0.00 68 1014.7
20260507143925 20 0.0 0.0 0.00 0.00 0.00 67 1014.8
20260507143428 20 0.0 0.0 0.00 0.00 0.00 68 1014.4
20260507142924 21 0.0 0.0 0.00 0.00 0.00 66 1015.0
20260507141930 21 0.0 0.0 0.00 0.00 0.00 67 1016.0
20260507141426 20 0.0 0.0 0.00 0.00 0.00 68 1015.2
20260507140929 21 0.0 0.0 0.00 0.00 0.00 68 1015.6
20260507140425 19 0.0 0.0 0.00 0.00 0.00 71 1015.3
20260507135927 20 0.0 0.0 0.00 0.00 0.00 68 1015.5
20260507135423 20 0.0 0.0 0.00 0.00 0.00 69 1016.0
20260507134926 20 0.0 0.0 0.00 0.00 0.00 69 1016.0
20260507134429 20 0.0 0.0 0.00 0.00 0.00 67 1015.5
20260507133925 20 0.0 0.0 0.00 0.00 0.00 70 1015.8
20260507133428 18 0.0 0.0 0.00 0.00 0.00 72 1015.4
20260507132924 20 0.0 0.0 0.00 0.00 0.00 68 1015.8
20260507131929 20 0.0 0.0 0.00 0.00 0.00 70 1015.2
20260507131425 20 0.0 0.0 0.00 0.00 0.00 72 1015.5
20260507130928 20 0.0 0.0 0.00 0.00 0.00 70 1016.0
20260507130424 22 0.0 0.0 0.00 0.00 0.00 63 1015.6
20260507125927 21 0.0 0.0 0.00 0.00 0.00 65 1015.7
20260507125430 21 0.0 0.0 0.00 0.00 0.00 67 1014.8
20260507124926 20 0.0 0.0 0.00 0.00 0.00 70 1015.4
20260507124429 20 0.0 0.0 0.00 0.00 0.00 71 1015.8
20260507123924 19 0.0 0.0 0.00 0.00 0.00 70 1015.8
20260507123427 20 0.0 0.0 0.00 0.00 0.00 69 1016.0
20260507122923 21 0.0 0.0 0.00 0.00 0.00 69 1015.8
20260507122426 20 0.0 0.0 0.00 0.00 0.00 69 1015.5
20260507121929 21 0.0 0.0 0.00 0.00 0.00 68 1015.5
20260507121425 20 0.0 0.0 0.00 0.00 0.00 70 1015.1
20260507120928 20 0.0 0.0 0.00 0.00 0.00 69 1015.9
20260507120424 20 0.0 0.0 0.00 0.00 0.00 69 1015.0
20260507115926 19 0.0 0.0 0.00 0.00 0.00 70 1015.4
20260507115429 20 0.0 0.0 0.00 0.00 0.00 70 1015.4
20260507114925 20 0.0 0.0 0.00 0.00 0.00 71 1016.1
20260507114428 18 0.0 0.0 0.00 0.00 0.00 75 1015.9
20260507113924 18 0.0 0.0 0.00 0.00 0.00 72 1015.6
20260507112426 18 0.0 0.0 0.00 0.00 0.00 72 1015.4
20260507111928 19 0.0 0.0 0.00 0.00 0.00 69 1015.6
20260507110423 19 0.0 0.0 0.00 0.00 0.00 69 1015.2
20260507105926 19 0.0 0.0 0.00 0.00 0.00 71 1015.0
20260507105429 19 0.0 0.0 0.00 0.00 0.00 70 1015.6
20260507104428 18 0.0 0.0 0.00 0.00 0.00 70 1015.2
20260507103924 19 0.0 0.0 0.00 0.00 0.00 71 1015.2
20260507103427 18 0.0 0.0 0.00 0.00 0.00 72 1015.1
20260507102929 18 0.0 0.0 0.00 0.00 0.00 73 1015.5
20260507102425 18 0.0 0.0 0.00 0.00 0.00 74 1015.5
20260507101928 18 0.0 0.0 0.00 0.00 0.00 74 1015.2
20260507100927 18 0.0 0.0 0.00 0.00 0.00 73 1014.8
20260507100430 18 0.0 0.0 0.00 0.00 0.00 71 1015.2
20260507095926 18 0.0 0.0 0.00 0.00 0.00 74 1014.8
20260507095429 18 0.0 0.0 0.00 0.00 0.00 72 1015.5
20260507094925 19 0.0 0.0 0.00 0.00 0.00 72 1014.8
20260507094427 18 0.0 0.0 0.00 0.00 0.00 70 1014.9
20260507093923 18 0.0 0.0 0.00 0.00 0.00 72 1014.8
20260507093426 18 0.0 0.0 0.00 0.00 0.00 73 1014.8
20260507092929 18 0.0 0.0 0.00 0.00 0.00 71 1015.1
20260507092425 18 0.0 0.0 0.00 0.00 0.00 72 1014.8
20260507091928 18 0.0 0.0 0.00 0.00 0.00 74 1014.9
20260507091424 18 0.0 0.0 0.00 0.00 0.00 72 1014.7
20260507090927 18 0.0 0.0 0.00 0.00 0.00 71 1014.7
20260507090429 18 0.0 0.0 0.00 0.00 0.00 74 1015.1
20260507085925 17 0.0 0.0 0.00 0.00 0.00 75 1015.0
20260507085428 18 0.0 0.0 0.00 0.00 0.00 73 1014.7
20260507084924 18 0.0 0.0 0.00 0.00 0.00 72 1014.6
20260507084427 18 0.0 0.0 0.00 0.00 0.00 72 1014.6
20260507083930 17 0.0 0.0 0.00 0.00 0.00 75 1014.7
20260507083426 17 0.0 0.0 0.00 0.00 0.00 72 1014.7
20260507082928 17 0.0 0.0 0.00 0.00 0.00 72 1014.5
20260507082424 17 0.0 0.0 0.00 0.00 0.00 72 1014.5
20260507081927 17 0.0 0.0 0.00 0.00 0.00 73 1014.7
20260507081423 17 0.0 0.0 0.00 0.00 0.00 75 1014.3
20260507080926 17 0.0 0.0 0.00 0.00 0.00 74 1014.4
20260507080429 17 0.0 0.0 0.00 0.00 0.00 73 1014.6
20260507075925 17 0.0 0.0 0.00 0.00 0.00 72 1014.6
20260507075428 17 0.0 0.0 0.00 0.00 0.00 74 1014.5
20260507074924 17 0.0 0.0 0.00 0.00 0.00 73 1015.0
20260507074426 17 0.0 0.0 0.00 0.00 0.00 75 1014.3
20260507073929 16 0.0 0.0 0.00 0.00 0.00 77 1014.4
20260507073425 16 0.0 0.0 0.00 0.00 0.00 77 1014.6
20260507072928 16 0.0 0.0 0.00 0.00 0.00 76 1014.3
20260507072424 16 0.0 0.0 0.00 0.00 0.00 75 1014.5
20260507071927 16 0.0 0.0 0.00 0.00 0.00 76 1014.3
20260507071429 16 0.0 0.0 0.00 0.00 0.00 77 1014.3
20260507070925 16 0.0 0.0 0.00 0.00 0.00 76 1014.3
20260507070428 16 0.0 0.0 0.00 0.00 0.00 77 1014.1
20260507065924 16 0.0 0.0 0.00 0.00 0.00 74 1014.3
20260507065427 16 0.0 0.0 0.00 0.00 0.00 75 1014.1
20260507064930 16 0.0 0.0 0.00 0.00 0.00 75 1014.5
20260507064425 16 0.0 0.0 0.00 0.00 0.00 79 1014.7
20260507063928 16 0.0 0.0 0.00 0.00 0.00 78 1014.4
20260507063424 15 0.0 0.0 0.00 0.00 0.00 80 1014.1
20260507062927 15 0.0 0.0 0.00 0.00 0.00 80 1014.4
20260507061926 15 0.0 0.0 0.00 0.00 0.00 80 1013.3
20260507061429 15 0.0 0.0 0.00 0.00 0.00 77 1013.8
20260507060925 15 0.0 0.0 0.00 0.00 0.00 77 1013.9
20260507060427 15 0.0 0.0 0.00 0.00 0.00 76 1013.9
20260507055923 15 0.0 0.0 0.00 0.00 0.00 76 1013.5
20260507055426 15 0.0 0.0 0.00 0.00 0.00 79 1013.9
20260507054929 15 0.0 0.0 0.00 0.00 0.00 80 1014.0
20260507054425 15 0.0 0.0 0.00 0.00 0.00 78 1012.9
20260507053928 15 0.0 0.0 0.00 0.00 0.00 82 1013.8
20260507053424 15 0.0 0.0 0.00 0.00 0.00 79 1013.7
20260507052926 14 0.0 0.0 0.00 0.00 0.00 80 1013.3
20260507052429 14 0.0 0.0 0.00 0.00 0.00 81 1014.2
20260507051925 14 0.0 0.0 0.00 0.00 0.00 81 1013.4
20260507051428 13 0.0 0.0 0.00 0.00 0.00 80 1013.2
20260507050924 14 0.0 0.0 0.00 0.00 0.00 81 1014.1
20260507050427 14 0.0 0.0 0.00 0.00 0.00 80 1013.5
20260507045930 14 0.0 0.0 0.00 0.00 0.00 82 1013.1
20260507045426 14 0.0 0.0 0.00 0.00 0.00 81 1013.3
20260507044928 14 0.0 0.0 0.00 0.00 0.00 82 1013.3
20260507044424 14 0.0 0.0 0.00 0.00 0.00 83 1013.3
20260507043927 13 0.0 0.0 0.00 0.00 0.00 81 1013.5
20260507043423 13 0.0 0.0 0.00 0.00 0.00 81 1013.7
20260507042926 13 0.0 0.0 0.00 0.00 0.00 82 1013.8
20260507042429 13 0.0 0.0 0.00 0.00 0.00 81 1013.4
20260507041925 14 0.0 0.0 0.00 0.00 0.00 82 1013.0
20260507041428 14 0.0 0.0 0.00 0.00 0.00 82 1013.1
20260507040923 14 0.0 0.0 0.00 0.00 0.00 81 1013.2
20260507040426 14 0.0 0.0 0.00 0.00 0.00 81 1013.1
20260507035929 14 0.0 0.0 0.00 0.00 0.00 81 1013.1
20260507035425 13 0.0 0.0 0.00 0.00 0.00 82 1012.9
20260507034928 13 0.0 0.0 0.00 0.00 0.00 83 1012.9
20260507034424 14 0.0 0.0 0.00 0.00 0.00 83 1013.3
20260507033927 13 0.0 0.0 0.00 0.00 0.00 82 1013.8
20260507033430 13 0.0 0.0 0.00 0.00 0.00 84 1013.9
20260507032925 13 0.0 0.0 0.00 0.00 0.00 84 1013.7
20260507032428 13 0.0 0.0 0.00 0.00 0.00 85 1013.7
20260507031924 13 0.0 0.0 0.00 0.00 0.00 85 1014.2
20260507031427 13 0.0 0.0 0.00 0.00 0.00 85 1012.8
20260507030930 13 0.0 0.0 0.00 0.00 0.00 84 1014.0
20260507030426 13 0.0 0.0 0.00 0.00 0.00 84 1013.1
20260507025929 13 0.0 0.0 0.00 0.00 0.00 85 1013.8
20260507025425 13 0.0 0.0 0.00 0.00 0.00 85 1012.8
20260507024423 13 0.0 0.0 0.00 0.00 0.00 85 1013.0
20260507023926 14 0.0 0.0 0.00 0.00 0.00 84 1013.7
20260507023429 13 0.0 0.0 0.00 0.00 0.00 84 1013.2
20260507022428 14 0.0 0.0 0.00 0.00 0.00 84 1013.3
20260507021427 13 0.0 0.0 0.00 0.00 0.00 85 1013.4
20260507020930 13 0.0 0.0 0.00 0.00 0.00 85 1013.7
20260507020426 13 0.0 0.0 0.00 0.00 0.00 85 1013.8
20260507015424 13 0.0 0.0 0.00 0.00 0.00 87 1014.3
20260507014927 13 0.0 0.0 0.00 0.00 0.00 88 1013.4
20260507014430 13 0.0 0.0 0.00 0.00 0.00 86 1012.9
20260507013926 13 0.0 0.0 0.00 0.00 0.00 87 1013.3
20260507013429 13 0.0 0.0 0.00 0.00 0.00 86 1012.9
20260507012925 13 0.0 0.0 0.00 0.00 0.00 88 1013.5
20260507012428 13 0.0 0.0 0.00 0.00 0.00 88 1013.5
20260507011923 13 0.0 0.0 0.00 0.00 0.00 89 1012.9
20260507011426 13 0.0 0.0 0.00 0.00 0.00 90 1013.3
20260507010929 13 0.0 0.0 0.00 0.00 0.00 89 1013.2
20260507010425 13 0.0 0.0 0.00 0.00 0.00 90 1013.5
20260507005928 13 0.0 0.0 0.00 0.00 0.00 90 1012.8
20260507005424 13 0.0 0.0 0.00 0.00 0.00 90 1013.7
20260507004927 13 0.0 0.0 0.00 0.00 0.00 90 1014.1
20260507004429 13 0.0 0.0 0.00 0.00 0.00 90 1013.6
20260507003925 13 0.0 0.0 0.00 0.00 0.00 89 1013.7
20260507003428 13 0.0 0.0 0.00 0.00 0.00 89 1014.1
20260507002924 13 0.0 0.0 0.00 0.00 0.00 89 1012.7
20260507002427 13 0.0 0.0 0.00 0.00 0.00 89 1013.4
20260507001930 13 0.0 0.0 0.00 0.00 0.00 89 1013.9
20260507001426 13 0.0 0.0 0.00 0.00 0.00 88 1013.1
20260507000929 13 0.0 0.0 0.00 0.00 0.00 88 1013.9
20260507000424 13 0.0 0.0 0.00 0.00 0.00 88 1013.8
20260506235927 13 0.0 0.0 0.00 0.00 0.00 89 1014.1
20260506235423 13 0.0 0.0 0.00 0.00 0.00 88 1013.3
20260506234926 13 0.0 0.0 0.00 0.00 0.00 88 1013.1
20260506234429 13 0.0 0.0 0.00 0.00 0.00 87 1012.8
20260506233925 13 0.0 0.0 0.00 0.00 0.00 88 1013.5
20260506233428 13 0.0 0.0 0.00 0.00 0.00 88 1013.3
20260506232924 13 0.0 0.0 0.00 0.00 0.00 88 1013.3
20260506232427 13 0.0 0.0 0.00 0.00 0.00 88 1014.0
20260506231930 13 0.0 0.0 0.00 0.00 0.00 87 1013.4
20260506231425 13 0.0 0.0 0.00 0.00 0.00 88 1013.0
20260506230928 13 0.0 0.0 0.00 0.00 0.00 88 1013.7
20260506230425 13 0.0 0.0 0.00 0.00 0.00 87 1013.8
20260506225927 13 0.0 0.0 0.00 0.00 0.00 88 1013.3
20260506225423 13 0.0 0.0 0.00 0.00 0.00 87 1013.2
20260506224926 13 0.0 0.0 0.00 0.00 0.00 88 1013.1
20260506224429 13 0.0 0.0 0.00 0.00 0.00 89 1012.5